Weather History for Milford, UT

Change the Weather History Date:

Tuesday, February 12, 2013

  Actual Average Record
Temperature  
Mean Temperature 18 °F -  
Max Temperature 32 °F 41 °F 61 °F (2014)
Min Temperature 3 °F 20 °F -2 °F (1999)
Degree Days  
Heating Degree Days 48    
Moisture  
Dew Point 9 °F    
Average Humidity 66    
Maximum Humidity 81    
Minimum Humidity 40    
Precipitation  
Precipitation 0.00 in - - ()
Sea Level Pressure  
Sea Level Pressure 30.44 in    
Wind  
Wind Speed 5 mph (NNW)    
Max Wind Speed 10 mph    
Max Gust Speed -    
Visibility 10 miles    
Events      
Averages and records for this station are not official NWS values.
T = Trace of Precipitation, MM = Missing Value Source: NWS Daily Summary

Daily Weather History Graph

Daily Weather History Graph

Search for Another Location

Airport:

Trip Planner

Search our weather history database for the weather conditions in past years. The results will help you decide how hot, cold, wet, or windy it might be!

Date:

Astronomy

Feb. 12, 2013 Rise Set
Actual Time 7:25 AM MST 6:07 PM MST
Civil Twilight 6:58 AM MST 6:34 PM MST
Nautical Twilight 6:27 AM MST 7:05 PM MST
Astronomical Twilight 5:56 AM MST 7:36 PM MST
Moon 8:27 AM MST (2/12) 9:08 PM MST (2/12)
Length of Visible Light 11h 36m
Length of Day
10h 41m
Waxing Crescent, 8% of the Moon is Illuminated
Feb 12
Waxing Crescent
Feb 17
First Quarter
Feb 25
Full
Mar 4
Last Quarter
Mar 11
New

Hourly Weather History & Observations

Time (MST) Temp. Windchill Dew Point Humidity Pressure Visibility Wind Dir Wind Speed Gust Speed Precip Events Conditions
12:52 AM 8.1 °F -5.3 °F 1.0 °F 73% 30.37 in 10.0 mi West 9.2 mph - N/A   Clear
1:52 AM 9.0 °F -2.2 °F 1.0 °F 70% 30.37 in 10.0 mi West 6.9 mph - N/A   Clear
2:52 AM 7.0 °F 0.1 °F 1.0 °F 77% 30.39 in 10.0 mi North 3.5 mph - N/A   Clear
3:52 AM 6.1 °F - 1.0 °F 80% 30.40 in 10.0 mi Calm Calm - N/A   Clear
4:52 AM 5.0 °F -2.1 °F -0.0 °F 80% 30.41 in 10.0 mi NNW 3.5 mph - N/A   Clear
5:52 AM 5.0 °F -4.1 °F -0.9 °F 76% 30.44 in 10.0 mi West 4.6 mph - N/A   Clear
6:52 AM 5.0 °F - -0.0 °F 80% 30.46 in 10.0 mi Calm Calm - N/A   Clear
7:52 AM 5.0 °F -4.1 °F -0.0 °F 80% 30.51 in 10.0 mi NNW 4.6 mph - N/A   Clear
8:52 AM 17.1 °F - 9.0 °F 71% 30.48 in 10.0 mi Calm Calm - N/A   Clear
9:52 AM 16.0 °F - 8.1 °F 71% 30.51 in 10.0 mi Calm Calm - N/A   Clear
10:52 AM 23.0 °F - 10.0 °F 58% 30.47 in 10.0 mi Calm Calm - N/A   Clear
11:52 AM 27.0 °F 18.0 °F 10.0 °F 49% 30.47 in 10.0 mi North 9.2 mph - N/A   Clear
12:52 PM 28.9 °F 20.4 °F 12.0 °F 49% 30.45 in 10.0 mi North 9.2 mph - N/A   Clear
1:52 PM 30.9 °F 22.2 °F 16.0 °F 54% 30.43 in 10.0 mi North 10.4 mph - N/A   Overcast
2:52 PM 30.9 °F 22.8 °F 16.0 °F 54% 30.42 in 10.0 mi North 9.2 mph - N/A   Overcast
3:52 PM 30.9 °F - 17.1 °F 57% 30.43 in 10.0 mi North - - N/A   Overcast
4:52 PM 30.9 °F 25.2 °F 17.1 °F 57% 30.43 in 10.0 mi North 5.8 mph - N/A   Overcast
5:52 PM 30.0 °F 22.4 °F 18.0 °F 61% 30.43 in 10.0 mi North 8.1 mph - N/A   Overcast
6:52 PM 25.0 °F 14.8 °F 17.1 °F 72% 30.45 in 10.0 mi NNW 10.4 mph - N/A   Mostly Cloudy
7:52 PM 26.1 °F 16.8 °F 17.1 °F 69% 30.47 in 10.0 mi NNW 9.2 mph - N/A   Overcast
8:52 PM 21.9 °F 12.5 °F 16.0 °F 78% 30.43 in 10.0 mi NNW 8.1 mph - N/A   Clear
9:52 PM 23.0 °F - 16.0 °F 74% 30.44 in 10.0 mi Calm Calm - N/A   Clear
10:52 PM 19.9 °F - 14.0 °F 78% 30.43 in 10.0 mi Calm Calm - N/A   Clear
11:52 PM 17.1 °F - 12.0 °F 81% 30.43 in 10.0 mi Calm Calm - N/A   Clear